QPF
0.00 0.00 0.00 0.00 0.00 0.00 0.00 0.00 0.00 0.00 0.00 0.00 0.00 0.00 0.00 0.00 0.00 0.00 0.00 0.00 0.00 0.00 0.00 0.00 0.00 0.00 0.00 0.00 0.00 0.00 0.00 0.00 0.00 0.00 0.00 0.00 0.00 0.00 0.00 0.00 0.00 0.00 0.00 0.01
0.00 0.00 0.00 0.00 0.00 0.00 0.00 0.00 0.00 0.00 0.00 0.00 0.00 0.00 0.00 0.00 0.00 0.00 0.00 0.00 0.00 0.00 0.00 0.00 0.00 0.00 0.00 0.00 0.00 0.00 0.00 0.00 0.00 0.00 0.00 0.00 0.00 0.00 0.00 0.00 0.00 0.00 0.00 0.00
0.00 0.00 0.00 0.00 0.00 0.00 0.00 0.00 0.00 0.00 0.00 0.00 0.00 0.00 0.00 0.00 0.00 0.00 0.00 0.00 0.00 0.00 0.00 0.00 0.00 0.00 0.00 0.00 0.00 0.00 0.00 0.00 0.00 0.00 0.00 0.00 0.00 0.00 0.00 0.00 0.00 0.00 0.00 0.00
0.00 0.00 0.00 0.00 0.00 0.00 0.00 0.00 0.00 0.00 0.00 0.00 0.00 0.00 0.00 0.00 0.00 0.00 0.00 0.00 0.00 0.00 0.00 0.00 0.00 0.00 0.00 0.00 0.00 0.00 0.00 0.00 0.00 0.00 0.00 0.00 0.00 0.00 0.00 0.00 0.00 0.01 0.01 0.01
0.00 0.00 0.00 0.00 0.00 0.00 0.00 0.00 0.00 0.00 0.00 0.00 0.00 0.00 0.00 0.00 0.00 0.00 0.00 0.00 0.00 0.00 0.00 0.00 0.00 0.00 0.00 0.00 0.00 0.00 0.00 0.00 0.00 0.00 0.00 0.00 0.00 0.00 0.01 0.01 0.01 0.02 0.02 0.01
0.00 0.00 0.00 0.00 0.00 0.00 0.00 0.00 0.00 0.00 0.00 0.00 0.00 0.00 0.00 0.00 0.00 0.00 0.00 0.00 0.00 0.00 0.00 0.00 0.00 0.00 0.00 0.00 0.00 0.00 0.00 0.00 0.00 0.00 0.00 0.00 0.01 0.02 0.01 0.01 0.01 0.02 0.02 0.02
0.00 0.00 0.00 0.00 0.00 0.00 0.00 0.00 0.00 0.00 0.00 0.00 0.00 0.00 0.00 0.00 0.00 0.00 0.00 0.00 0.00 0.00 0.00 0.00 0.00 0.00 0.00 0.00 0.00 0.00 0.00 0.00 0.00 0.00 0.00 0.00 0.01 0.02 0.01 0.02 0.03 0.03 0.02 0.02
0.00 0.00 0.00 0.00 0.00 0.00 0.00 0.00 0.00 0.00 0.00 0.00 0.00 0.00 0.00 0.00 0.00 0.00 0.00 0.00 0.00 0.00 0.00 0.00 0.00 0.00 0.00 0.00 0.00 0.00 0.00 0.00 0.00 0.00 0.00 0.00 0.01 0.02 0.02 0.04 0.08 0.07 0.05 0.04
0.00 0.00 0.00 0.00 0.00 0.00 0.00 0.00 0.00 0.00 0.00 0.00 0.00 0.00 0.00 0.00 0.00 0.00 0.00 0.00 0.00 0.00 0.00 0.00 0.00 0.00 0.00 0.00 0.00 0.00 0.00 0.00 0.00 0.00 0.00 0.00 0.01 0.02 0.04 0.06 0.09 0.09 0.06 0.06
0.00 0.00 0.00 0.00 0.00 0.00 0.00 0.00 0.00 0.00 0.00 0.00 0.00 0.00 0.00 0.00 0.00 0.00 0.00 0.00 0.00 0.00 0.00 0.00 0.00 0.00 0.00 0.00 0.00 0.00 0.00 0.00 0.00 0.00 0.00 0.01 0.01 0.01 0.03 0.04 0.03 0.05 0.05 0.06
0.00 0.00 0.00 0.00 0.00 0.00 0.00 0.00 0.00 0.00 0.00 0.00 0.00 0.00 0.00 0.00 0.00 0.00 0.00 0.00 0.00 0.00 0.00 0.00 0.00 0.00 0.00 0.00 0.00 0.00 0.00 0.00 0.00 0.00 0.00 0.00 0.00 0.01 0.01 0.01 0.01 0.02 0.04 0.04
0.00 0.00 0.00 0.00 0.00 0.00 0.00 0.00 0.00 0.00 0.00 0.00 0.00 0.00 0.00 0.00 0.00 0.00 0.00 0.00 0.00 0.00 0.00 0.00 0.00 0.00 0.00 0.00 0.00 0.00 0.00 0.00 0.00 0.00 0.00 0.00 0.00 0.01 0.01 0.01 0.01 0.02 0.04 0.04
0.00 0.00 0.00 0.00 0.00 0.00 0.00 0.00 0.00 0.00 0.00 0.00 0.00 0.00 0.00 0.00 0.00 0.00 0.00 0.00 0.00 0.00 0.00 0.00 0.00 0.00 0.00 0.00 0.00 0.00 0.00 0.00 0.00 0.00 0.00 0.00 0.00 0.00 0.00 0.00 0.00 0.01 0.02 0.05
0.00 0.00 0.00 0.00 0.00 0.00 0.00 0.00 0.00 0.00 0.00 0.00 0.00 0.00 0.00 0.00 0.00 0.00 0.00 0.00 0.00 0.00 0.00 0.00 0.00 0.00 0.00 0.00 0.00 0.00 0.00 0.00 0.00 0.00 0.00 0.00 0.00 0.00 0.00 0.00 0.00 0.00 0.00 0.01
0.00 0.00 0.00 0.00 0.00 0.00 0.00 0.00 0.00 0.00 0.00 0.00 0.00 0.00 0.00 0.00 0.00 0.00 0.00 0.00 0.00 0.00 0.00 0.00 0.00 0.00 0.00 0.00 0.00 0.00 0.00 0.00 0.00 0.00 0.00 0.00 0.00 0.00 0.00 0.00 0.00 0.00 0.00 0.00
0.00 0.00 0.00 0.00 0.00 0.00 0.00 0.00 0.00 0.00 0.00 0.00 0.00 0.00 0.00 0.00 0.00 0.00 0.00 0.00 0.00 0.00 0.00 0.00 0.00 0.00 0.00 0.00 0.00 0.00 0.00 0.00 0.00 0.00 0.00 0.00 0.00 0.00 0.00 0.00 0.00 0.00 0.00 0.00
0.00 0.00 0.00 0.00 0.00 0.00 0.00 0.00 0.00 0.00 0.00 0.00 0.00 0.00 0.00 0.00 0.00 0.00 0.00 0.00 0.00 0.00 0.00 0.00 0.00 0.00 0.00 0.00 0.00 0.00 0.00 0.00 0.00 0.00 0.00 0.00 0.00 0.00 0.00 0.00 0.00 0.00 0.00 0.00
0.00 0.00 0.00 0.00 0.00 0.00 0.00 0.00 0.00 0.00 0.00 0.00 0.00 0.00 0.00 0.00 0.00 0.00 0.00 0.00 0.00 0.00 0.00 0.00 0.00 0.00 0.00 0.00 0.00 0.00 0.00 0.00 0.00 0.00 0.00 0.00 0.00 0.00 0.00 0.00 0.00 0.00 0.00 0.00
0.00 0.00 0.00 0.00 0.00 0.00 0.00 0.00 0.00 0.00 0.00 0.00 0.00 0.00 0.00 0.00 0.00 0.00 0.00 0.00 0.00 0.00 0.00 0.00 0.00 0.00 0.00 0.00 0.00 0.00 0.00 0.00 0.00 0.00 0.00 0.00 0.00 0.00 0.00 0.00 0.00 0.00 0.00 0.00
0.00 0.00 0.00 0.00 0.00 0.00 0.00 0.00 0.00 0.00 0.00 0.00 0.00 0.00 0.00 0.00 0.00 0.00 0.00 0.00 0.00 0.00 0.00 0.00 0.00 0.00 0.00 0.00 0.00 0.00 0.00 0.00 0.00 0.00 0.00 0.00 0.00 0.00 0.00 0.00 0.00 0.00 0.00 0.00
0.00 0.00 0.00 0.00 0.00 0.00 0.00 0.00 0.00 0.00 0.00 0.00 0.00 0.00 0.00 0.00 0.00 0.00 0.00 0.00 0.00 0.00 0.00 0.00 0.00 0.00 0.00 0.00 0.00 0.00 0.00 0.00 0.00 0.00 0.00 0.00 0.00 0.00 0.00 0.00 0.00 0.00 0.00 0.00
0.00 0.00 0.00 0.00 0.00 0.00 0.00 0.00 0.00 0.00 0.00 0.00 0.00 0.00 0.00 0.00 0.00 0.00 0.00 0.00 0.00 0.00 0.00 0.00 0.00 0.00 0.00 0.00 0.00 0.00 0.00 0.00 0.00 0.00 0.00 0.00 0.00 0.00 0.00 0.00 0.00 0.00 0.00 0.00
0.00 0.00 0.00 0.00 0.00 0.00 0.00 0.00 0.00 0.00 0.00 0.00 0.00 0.00 0.00 0.00 0.00 0.00 0.00 0.00 0.00 0.00 0.00 0.00 0.00 0.00 0.00 0.00 0.00 0.00 0.00 0.00 0.00 0.00 0.00 0.00 0.00 0.00 0.00 0.00 0.00 0.00 0.00 0.00
0.00 0.00 0.00 0.00 0.00 0.00 0.00 0.00 0.00 0.00 0.00 0.00 0.00 0.00 0.00 0.00 0.00 0.00 0.00 0.00 0.00 0.00 0.00 0.00 0.00 0.00 0.00 0.00 0.00 0.00 0.00 0.00 0.00 0.00 0.00 0.00 0.00 0.00 0.00 0.00 0.00 0.00 0.00 0.00
0.00 0.00 0.00 0.00 0.00 0.00 0.00 0.00 0.00 0.00 0.00 0.00 0.00 0.00 0.00 0.00 0.00 0.00 0.00 0.00 0.00 0.00 0.00 0.00 0.00 0.00 0.00 0.00 0.00 0.00 0.00 0.00 0.00 0.00 0.00 0.00 0.00 0.00 0.00 0.00 0.00 0.00 0.00 0.00
0.00 0.00 0.00 0.00 0.00 0.00 0.00 0.00 0.00 0.00 0.00 0.00 0.00 0.00 0.00 0.00 0.00 0.00 0.00 0.00 0.00 0.00 0.00 0.00 0.00 0.00 0.00 0.00 0.00 0.00 0.00 0.00 0.00 0.00 0.00 0.00 0.00 0.00 0.00 0.00 0.00 0.00 0.00 0.00
MSLP
1013.80 1015.14 1016.35 1017.36 1018.18 1018.82 1019.34 1019.78 1020.19 1020.60 1021.00 1021.38 1021.72 1021.96 1022.10 1022.11 1022.00 1021.80 1021.54 1021.25 1020.96 1020.68 1020.43 1020.20 1019.98 1019.75 1019.49 1019.20 1018.87 1018.52 1018.16 1017.79 1017.42 1017.07 1016.73 1016.40 1016.08 1015.76 1015.44 1015.12 1014.79 1014.48 1014.18 1013.91
1014.98 1016.14 1017.13 1017.94 1018.58 1019.09 1019.54 1019.98 1020.43 1020.90 1021.37 1021.80 1022.14 1022.36 1022.44 1022.37 1022.18 1021.89 1021.57 1021.24 1020.94 1020.67 1020.43 1020.21 1019.99 1019.75 1019.47 1019.16 1018.82 1018.47 1018.12 1017.79 1017.48 1017.19 1016.91 1016.63 1016.32 1015.99 1015.63 1015.24 1014.85 1014.46 1014.10 1013.78
1016.04 1017.00 1017.78 1018.40 1018.89 1019.32 1019.74 1020.20 1020.71 1021.24 1021.76 1022.22 1022.54 1022.70 1022.68 1022.50 1022.20 1021.83 1021.44 1021.09 1020.78 1020.54 1020.33 1020.14 1019.93 1019.69 1019.40 1019.07 1018.72 1018.38 1018.05 1017.77 1017.52 1017.30 1017.09 1016.85 1016.57 1016.23 1015.83 1015.39 1014.91 1014.45 1014.01 1013.63
1016.91 1017.67 1018.26 1018.72 1019.11 1019.50 1019.94 1020.46 1021.05 1021.66 1022.22 1022.66 1022.93 1022.99 1022.85 1022.53 1022.10 1021.63 1021.18 1020.80 1020.51 1020.30 1020.14 1019.99 1019.81 1019.58 1019.29 1018.95 1018.59 1018.25 1017.96 1017.72 1017.53 1017.38 1017.23 1017.05 1016.80 1016.46 1016.03 1015.53 1014.98 1014.44 1013.92 1013.47
1017.57 1018.14 1018.56 1018.91 1019.25 1019.65 1020.16 1020.78 1021.46 1022.14 1022.73 1023.14 1023.33 1023.26 1022.96 1022.47 1021.90 1021.32 1020.81 1020.42 1020.15 1019.98 1019.88 1019.78 1019.65 1019.44 1019.16 1018.82 1018.46 1018.12 1017.84 1017.64 1017.51 1017.42 1017.33 1017.19 1016.97 1016.64 1016.19 1015.65 1015.05 1014.44 1013.86 1013.34
1018.03 1018.43 1018.72 1019.00 1019.35 1019.82 1020.43 1021.16 1021.95 1022.69 1023.29 1023.65 1023.72 1023.50 1023.03 1022.37 1021.65 1020.97 1020.40 1019.99 1019.74 1019.63 1019.59 1019.55 1019.47 1019.29 1019.02 1018.68 1018.32 1017.98 1017.72 1017.54 1017.44 1017.40 1017.35 1017.26 1017.07 1016.75 1016.30 1015.74 1015.12 1014.47 1013.85 1013.29
1018.35 1018.60 1018.81 1019.07 1019.45 1020.01 1020.74 1021.60 1022.48 1023.27 1023.86 1024.15 1024.10 1023.72 1023.07 1022.25 1021.39 1020.60 1019.98 1019.56 1019.34 1019.28 1019.30 1019.33 1019.29 1019.14 1018.89 1018.56 1018.19 1017.85 1017.59 1017.42 1017.34 1017.33 1017.32 1017.26 1017.10 1016.80 1016.37 1015.82 1015.19 1014.54 1013.91 1013.34
1018.57 1018.72 1018.87 1019.14 1019.59 1020.26 1021.10 1022.07 1023.02 1023.83 1024.39 1024.59 1024.41 1023.88 1023.07 1022.10 1021.12 1020.26 1019.59 1019.17 1018.98 1018.96 1019.03 1019.11 1019.11 1018.99 1018.76 1018.43 1018.06 1017.72 1017.45 1017.28 1017.21 1017.21 1017.22 1017.19 1017.06 1016.79 1016.40 1015.88 1015.29 1014.66 1014.06 1013.50
1018.75 1018.82 1018.96 1019.27 1019.79 1020.54 1021.48 1022.51 1023.50 1024.30 1024.80 1024.91 1024.61 1023.94 1023.00 1021.93 1020.87 1019.95 1019.26 1018.84 1018.67 1018.68 1018.79 1018.90 1018.93 1018.83 1018.61 1018.28 1017.92 1017.57 1017.30 1017.13 1017.06 1017.06 1017.08 1017.07 1016.97 1016.75 1016.39 1015.93 1015.39 1014.82 1014.27 1013.75
1018.88 1018.93 1019.09 1019.44 1020.03 1020.84 1021.84 1022.89 1023.86 1024.61 1025.02 1025.03 1024.62 1023.86 1022.84 1021.70 1020.60 1019.67 1018.98 1018.57 1018.41 1018.44 1018.56 1018.68 1018.72 1018.63 1018.41 1018.09 1017.73 1017.39 1017.12 1016.95 1016.88 1016.88 1016.91 1016.92 1016.85 1016.67 1016.37 1015.97 1015.50 1015.00 1014.51 1014.04
1018.94 1019.02 1019.22 1019.63 1020.26 1021.11 1022.10 1023.11 1024.01 1024.68 1024.99 1024.90 1024.41 1023.59 1022.53 1021.39 1020.31 1019.40 1018.74 1018.35 1018.20 1018.22 1018.33 1018.44 1018.46 1018.36 1018.14 1017.84 1017.49 1017.16 1016.91 1016.75 1016.69 1016.70 1016.74 1016.76 1016.71 1016.57 1016.33 1015.99 1015.60 1015.17 1014.74 1014.32
1018.93 1019.07 1019.34 1019.80 1020.46 1021.29 1022.22 1023.14 1023.93 1024.47 1024.67 1024.49 1023.95 1023.11 1022.08 1020.99 1019.96 1019.12 1018.51 1018.14 1018.00 1018.01 1018.08 1018.15 1018.14 1018.03 1017.81 1017.51 1017.19 1016.89 1016.67 1016.54 1016.49 1016.52 1016.57 1016.60 1016.58 1016.47 1016.28 1016.00 1015.66 1015.29 1014.92 1014.54
1018.86 1019.09 1019.43 1019.92 1020.57 1021.34 1022.17 1022.96 1023.59 1023.98 1024.06 1023.80 1023.23 1022.42 1021.46 1020.46 1019.55 1018.80 1018.26 1017.93 1017.79 1017.77 1017.80 1017.82 1017.77 1017.63 1017.41 1017.13 1016.85 1016.60 1016.42 1016.33 1016.32 1016.36 1016.43 1016.47 1016.46 1016.38 1016.21 1015.97 1015.69 1015.36 1015.03 1014.68
1018.77 1019.09 1019.48 1019.99 1020.59 1021.27 1021.95 1022.56 1023.01 1023.23 1023.19 1022.86 1022.29 1021.54 1020.68 1019.83 1019.05 1018.42 1017.97 1017.69 1017.55 1017.51 1017.49 1017.45 1017.35 1017.20 1016.98 1016.74 1016.50 1016.31 1016.19 1016.15 1016.18 1016.24 1016.32 1016.36 1016.36 1016.29 1016.14 1015.93 1015.67 1015.38 1015.07 1014.75
1018.74 1019.12 1019.55 1020.03 1020.55 1021.08 1021.58 1021.98 1022.23 1022.28 1022.11 1021.74 1021.18 1020.51 1019.79 1019.08 1018.47 1017.98 1017.62 1017.40 1017.27 1017.20 1017.14 1017.05 1016.93 1016.76 1016.55 1016.35 1016.18 1016.06 1016.00 1016.01 1016.08 1016.16 1016.24 1016.29 1016.28 1016.21 1016.07 1015.88 1015.64 1015.37 1015.07 1014.76
1018.83 1019.24 1019.65 1020.06 1020.46 1020.82 1021.11 1021.29 1021.32 1021.20 1020.92 1020.50 1019.98 1019.39 1018.81 1018.27 1017.81 1017.46 1017.20 1017.04 1016.93 1016.85 1016.76 1016.65 1016.50 1016.34 1016.17 1016.02 1015.91 1015.86 1015.87 1015.93 1016.02 1016.12 1016.20 1016.23 1016.22 1016.13 1016.00 1015.81 1015.59 1015.34 1015.06 1014.75
1019.09 1019.47 1019.81 1020.11 1020.35 1020.52 1020.58 1020.54 1020.37 1020.09 1019.71 1019.25 1018.75 1018.25 1017.79 1017.40 1017.10 1016.87 1016.72 1016.62 1016.54 1016.46 1016.36 1016.24 1016.10 1015.96 1015.83 1015.74 1015.70 1015.71 1015.78 1015.88 1015.99 1016.09 1016.16 1016.18 1016.14 1016.05 1015.91 1015.74 1015.54 1015.31 1015.05 1014.77
1019.49 1019.79 1020.03 1020.18 1020.24 1020.20 1020.05 1019.80 1019.45 1019.02 1018.55 1018.06 1017.59 1017.17 1016.82 1016.55 1016.37 1016.25 1016.18 1016.13 1016.08 1016.02 1015.94 1015.83 1015.72 1015.61 1015.54 1015.51 1015.53 1015.60 1015.71 1015.84 1015.96 1016.05 1016.09 1016.09 1016.04 1015.94 1015.81 1015.65 1015.48 1015.29 1015.07 1014.82
1019.93 1020.13 1020.23 1020.22 1020.10 1019.87 1019.54 1019.11 1018.62 1018.08 1017.54 1017.03 1016.58 1016.22 1015.94 1015.76 1015.67 1015.62 1015.61 1015.61 1015.59 1015.55 1015.48 1015.41 1015.33 1015.28 1015.26 1015.29 1015.37 1015.49 1015.62 1015.76 1015.87 1015.94 1015.97 1015.94 1015.88 1015.78 1015.66 1015.54 1015.41 1015.26 1015.10 1014.89
1020.29 1020.36 1020.32 1020.16 1019.90 1019.52 1019.05 1018.50 1017.91 1017.31 1016.73 1016.22 1015.79 1015.46 1015.23 1015.10 1015.04 1015.04 1015.05 1015.07 1015.07 1015.05 1015.01 1014.96 1014.93 1014.92 1014.96 1015.04 1015.17 1015.31 1015.46 1015.60 1015.69 1015.75 1015.75 1015.71 1015.63 1015.55 1015.46 1015.37 1015.30 1015.22 1015.11 1014.97
1020.42 1020.38 1020.22 1019.96 1019.60 1019.13 1018.59 1017.99 1017.36 1016.75 1016.17 1015.66 1015.25 1014.94 1014.72 1014.60 1014.55 1014.54 1014.55 1014.56 1014.55 1014.53 1014.51 1014.49 1014.49 1014.53 1014.61 1014.72 1014.87 1015.03 1015.19 1015.32 1015.40 1015.43 1015.42 1015.37 1015.31 1015.24 1015.19 1015.15 1015.13 1015.12 1015.08 1014.99
1020.22 1020.11 1019.89 1019.58 1019.18 1018.70 1018.16 1017.59 1016.99 1016.40 1015.86 1015.39 1014.99 1014.68 1014.46 1014.32 1014.23 1014.18 1014.15 1014.11 1014.08 1014.04 1014.01 1014.00 1014.02 1014.07 1014.17 1014.31 1014.47 1014.64 1014.79 1014.90 1014.97 1015.00 1014.99 1014.95 1014.90 1014.86 1014.85 1014.87 1014.91 1014.95 1014.97 1014.95
1019.70 1019.55 1019.33 1019.03 1018.67 1018.25 1017.79 1017.29 1016.79 1016.28 1015.81 1015.38 1015.00 1014.70 1014.45 1014.26 1014.11 1013.99 1013.88 1013.79 1013.69 1013.61 1013.55 1013.52 1013.52 1013.58 1013.67 1013.80 1013.96 1014.11 1014.25 1014.36 1014.43 1014.46 1014.46 1014.44 1014.43 1014.43 1014.47 1014.53 1014.62 1014.71 1014.77 1014.79
1018.91 1018.79 1018.61 1018.39 1018.13 1017.83 1017.50 1017.13 1016.75 1016.36 1015.98 1015.61 1015.27 1014.95 1014.67 1014.42 1014.20 1013.99 1013.79 1013.60 1013.43 1013.28 1013.16 1013.08 1013.05 1013.06 1013.13 1013.23 1013.36 1013.49 1013.61 1013.71 1013.79 1013.83 1013.86 1013.88 1013.91 1013.96 1014.04 1014.15 1014.27 1014.39 1014.48 1014.53
1018.03 1017.97 1017.88 1017.77 1017.64 1017.49 1017.32 1017.11 1016.88 1016.62 1016.33 1016.03 1015.72 1015.40 1015.09 1014.78 1014.47 1014.17 1013.88 1013.59 1013.33 1013.09 1012.89 1012.74 1012.64 1012.59 1012.59 1012.64 1012.71 1012.81 1012.90 1012.99 1013.08 1013.14 1013.21 1013.27 1013.35 1013.45 1013.57 1013.71 1013.86 1014.00 1014.11 1014.17
1017.22 1017.24 1017.26 1017.28 1017.30 1017.30 1017.28 1017.23 1017.14 1016.99 1016.80 1016.57 1016.29 1015.97 1015.63 1015.27 1014.90 1014.52 1014.14 1013.77 1013.41 1013.08 1012.78 1012.54 1012.34 1012.20 1012.11 1012.07 1012.07 1012.11 1012.17 1012.24 1012.32 1012.41 1012.51 1012.62 1012.75 1012.90 1013.06 1013.23 1013.39 1013.54 1013.65 1013.72
Thickness
5761 5746 5733 5738 5740 5736 5727 5714 5705 5704 5708 5697 5687 5682 5682 5682 5678 5673 5670 5667 5666 5665 5666 5666 5665 5663 5661 5660 5658 5658 5658 5659 5659 5660 5662 5665 5668 5672 5676 5680 5685 5689 5694 5698
5740 5733 5742 5742 5737 5729 5719 5706 5699 5699 5702 5692 5680 5677 5680 5679 5676 5673 5669 5666 5664 5663 5662 5662 5661 5660 5657 5655 5654 5654 5653 5653 5653 5653 5654 5657 5660 5663 5667 5670 5675 5680 5684 5689
5731 5733 5742 5735 5726 5719 5712 5702 5697 5692 5688 5684 5677 5670 5674 5678 5677 5675 5672 5668 5665 5663 5660 5659 5658 5657 5655 5653 5651 5650 5649 5649 5648 5649 5650 5652 5654 5656 5659 5662 5666 5671 5675 5680
5728 5734 5732 5724 5719 5715 5704 5710 5703 5692 5677 5667 5671 5653 5667 5670 5671 5671 5669 5666 5663 5662 5661 5658 5657 5655 5653 5652 5650 5648 5647 5646 5645 5645 5644 5644 5645 5646 5650 5652 5657 5662 5667 5672
5722 5727 5724 5717 5717 5717 5707 5707 5699 5690 5676 5663 5664 5654 5661 5668 5665 5667 5668 5667 5665 5664 5661 5659 5657 5655 5654 5652 5649 5647 5645 5644 5643 5642 5640 5640 5640 5641 5644 5647 5651 5655 5660 5665
5722 5729 5726 5720 5719 5717 5708 5696 5685 5672 5664 5654 5663 5652 5657 5661 5667 5671 5671 5670 5668 5665 5663 5660 5659 5657 5654 5652 5650 5647 5643 5641 5640 5639 5637 5636 5636 5637 5639 5641 5644 5648 5653 5657
5710 5716 5722 5724 5712 5708 5699 5679 5659 5659 5647 5651 5665 5658 5662 5678 5677 5676 5674 5671 5670 5667 5663 5660 5658 5656 5653 5651 5649 5646 5643 5640 5639 5637 5636 5634 5633 5633 5634 5635 5638 5641 5645 5649
5698 5695 5711 5717 5710 5700 5692 5681 5659 5652 5645 5649 5662 5659 5674 5686 5686 5683 5679 5675 5672 5669 5665 5662 5660 5658 5655 5653 5650 5646 5643 5640 5638 5636 5635 5634 5632 5631 5631 5631 5633 5634 5637 5642
5696 5695 5713 5717 5716 5706 5690 5677 5675 5657 5656 5649 5654 5666 5680 5688 5686 5683 5679 5676 5672 5670 5668 5666 5664 5661 5658 5655 5652 5648 5644 5641 5639 5636 5635 5633 5631 5630 5629 5629 5629 5630 5633 5637
5708 5696 5706 5713 5712 5706 5699 5681 5666 5658 5651 5646 5652 5660 5668 5683 5681 5681 5679 5676 5674 5673 5671 5669 5667 5664 5661 5658 5654 5650 5646 5643 5640 5637 5635 5633 5630 5629 5628 5627 5627 5628 5629 5632
5713 5695 5696 5702 5700 5696 5692 5682 5666 5654 5653 5644 5643 5658 5686 5690 5690 5685 5683 5681 5678 5676 5674 5671 5669 5667 5664 5661 5657 5653 5649 5645 5642 5638 5635 5632 5630 5628 5627 5626 5625 5625 5626 5628
5706 5690 5684 5696 5706 5708 5702 5691 5673 5664 5659 5648 5643 5660 5698 5696 5695 5691 5688 5686 5684 5681 5678 5675 5673 5670 5667 5663 5659 5655 5651 5647 5643 5640 5636 5633 5630 5628 5626 5625 5624 5624 5624 5624
5708 5693 5681 5686 5691 5701 5700 5692 5682 5667 5656 5645 5646 5668 5700 5698 5698 5695 5692 5689 5686 5684 5682 5679 5675 5672 5669 5666 5662 5659 5654 5650 5646 5642 5638 5634 5631 5628 5626 5624 5623 5622 5622 5622
5715 5698 5690 5687 5689 5696 5697 5694 5683 5675 5661 5656 5661 5676 5695 5699 5698 5697 5695 5693 5690 5687 5684 5681 5678 5675 5673 5670 5666 5662 5658 5654 5649 5644 5640 5635 5632 5628 5626 5624 5623 5621 5620 5619
5715 5703 5706 5705 5709 5705 5703 5700 5689 5683 5679 5673 5682 5684 5698 5705 5705 5704 5702 5697 5693 5691 5689 5686 5682 5679 5676 5673 5670 5666 5662 5657 5652 5647 5642 5637 5634 5630 5627 5625 5622 5620 5618 5617
5712 5708 5709 5708 5710 5708 5706 5706 5698 5692 5691 5687 5688 5692 5711 5712 5711 5708 5705 5701 5697 5695 5693 5691 5688 5684 5681 5677 5673 5669 5665 5660 5655 5649 5644 5640 5636 5632 5628 5625 5622 5620 5617 5615
5706 5705 5699 5696 5703 5707 5701 5711 5706 5704 5703 5700 5696 5707 5718 5718 5715 5713 5711 5706 5703 5701 5698 5695 5692 5688 5685 5681 5677 5672 5668 5663 5658 5652 5647 5642 5637 5633 5629 5626 5622 5619 5616 5614
5706 5696 5685 5688 5700 5695 5711 5729 5722 5716 5716 5712 5713 5717 5720 5721 5722 5721 5718 5713 5709 5707 5703 5700 5696 5692 5689 5686 5681 5676 5671 5665 5660 5655 5650 5645 5639 5635 5631 5626 5622 5619 5616 5612
5709 5700 5685 5680 5687 5694 5717 5729 5726 5720 5721 5728 5721 5724 5725 5724 5723 5722 5726 5722 5718 5714 5710 5706 5702 5697 5693 5688 5684 5678 5673 5667 5662 5657 5653 5648 5642 5637 5632 5628 5623 5619 5615 5612
5703 5699 5686 5679 5690 5692 5715 5734 5737 5728 5717 5734 5730 5729 5725 5720 5709 5716 5731 5727 5723 5719 5715 5710 5705 5700 5695 5691 5686 5679 5674 5669 5665 5661 5656 5651 5645 5640 5635 5630 5625 5621 5616 5612
5698 5689 5683 5679 5684 5693 5721 5733 5732 5710 5711 5737 5736 5733 5723 5717 5721 5728 5732 5729 5726 5722 5718 5713 5707 5701 5698 5694 5687 5681 5677 5672 5670 5665 5660 5654 5649 5643 5638 5633 5628 5623 5618 5614
5694 5685 5681 5676 5683 5697 5731 5728 5720 5721 5734 5737 5737 5735 5727 5726 5729 5729 5730 5728 5725 5721 5718 5713 5707 5703 5700 5695 5689 5684 5680 5678 5673 5668 5663 5658 5652 5648 5644 5637 5631 5626 5620 5616
5698 5701 5695 5696 5704 5719 5723 5725 5727 5728 5729 5734 5734 5735 5731 5729 5728 5728 5727 5725 5723 5720 5717 5713 5708 5704 5701 5696 5691 5687 5686 5682 5676 5670 5665 5661 5656 5651 5646 5641 5635 5630 5624 5618
5704 5704 5700 5700 5713 5716 5715 5716 5718 5723 5725 5728 5730 5731 5730 5727 5727 5725 5723 5722 5720 5719 5716 5712 5707 5703 5701 5698 5694 5691 5689 5684 5678 5672 5668 5664 5659 5654 5650 5645 5640 5634 5628 5623
5706 5702 5700 5702 5710 5712 5712 5707 5709 5715 5720 5722 5723 5724 5724 5722 5721 5720 5719 5718 5717 5716 5714 5710 5706 5704 5703 5701 5697 5694 5690 5685 5679 5675 5671 5666 5662 5657 5653 5649 5644 5640 5635 5629
5694 5697 5699 5700 5699 5697 5698 5700 5702 5706 5708 5710 5712 5713 5714 5714 5713 5714 5714 5714 5713 5712 5710 5707 5705 5703 5703 5701 5698 5696 5692 5687 5681 5676 5673 5669 5664 5660 5656 5652 5648 5645 5641 5637